EW0690 Weather Reports


time (UTC)temp
C
wind
direction
speed
KPH
gust
KPH
rain 1hr
cm
rain 24hr
cm
rain mn
cm
humidity
%
barometer
mb
20260507161505 22 121 8.0 14.5 0.00 0.00 0.00 49 1011.9
20260507160006 22 98 8.0 17.7 0.00 0.00 0.00 49 1011.9
20260507154503 22 142 4.8 12.9 0.00 0.00 0.00 49 1011.9
20260507153001 22 150 9.7 14.5 0.00 0.00 0.00 50 1012.0
20260507151501 21 120 4.8 12.9 0.00 0.00 0.00 52 1012.2
20260507150001 22 118 8.0 14.5 0.00 0.00 0.00 51 1012.2
20260507144602 22 86 4.8 11.3 0.00 0.00 0.00 50 1012.2
20260507143121 21 114 4.8 11.3 0.00 0.00 0.00 49 1012.1
20260507141634 22 41 6.4 16.1 0.00 0.00 0.00 45 1012.1
20260507140056 22 174 4.8 14.5 0.00 0.00 0.00 44 1012.2
20260507134602 22 44 1.6 11.3 0.00 0.00 0.00 42 1012.2
20260507133101 22 79 12.9 17.7 0.00 0.00 0.00 42 1012.3
20260507131554 22 343 4.8 12.9 0.00 0.00 0.00 42 1012.5
20260507130053 22 352 4.8 19.3 0.00 0.00 0.00 41 1012.4
20260507124552 22 121 9.7 19.3 0.00 0.00 0.00 42 1012.5
20260507123050 21 253 1.6 12.9 0.00 0.00 0.00 41 1012.5
20260507121548 21 111 4.8 12.9 0.00 0.00 0.00 44 1012.7
20260507120056 21 38 6.4 11.3 0.00 0.00 0.00 42 1012.8
20260507114546 21 20 4.8 11.3 0.00 0.00 0.00 43 1012.9
20260507113049 21 338 3.2 11.3 0.00 0.00 0.00 43 1013.1
20260507111542 21 332 3.2 9.7 0.00 0.00 0.00 47 1013.1
20260507110040 21 36 3.2 8.0 0.00 0.00 0.00 49 1013.2
20260507104538 20 92 4.8 11.3 0.00 0.00 0.00 50 1013.4
20260507103036 20 108 0.0 14.5 0.00 0.00 0.00 54 1013.4
20260507101537 20 289 9.7 19.3 0.00 0.00 0.00 51 1013.5
20260507100037 20 142 3.2 14.5 0.00 0.00 0.00 51 1013.6
20260507094535 19 163 3.2 11.3 0.00 0.00 0.00 53 1013.7
20260507093036 20 41 0.0 8.0 0.00 0.00 0.00 52 1013.8
20260507091529 19 46 6.4 11.3 0.00 0.00 0.00 55 1013.8
20260507090026 18 24 6.4 12.9 0.00 0.00 0.00 56 1013.8
20260507084525 18 68 3.2 11.3 0.00 0.00 0.00 54 1013.6
20260507083024 18 333 3.2 8.0 0.00 0.00 0.00 55 1013.6
20260507081530 18 79 0.0 6.4 0.00 0.00 0.00 55 1013.6
20260507080021 18 195 0.0 4.8 0.00 0.00 0.00 55 1013.5
20260507074621 18 56 6.4 11.3 0.00 0.00 0.00 55 1013.4
20260507073018 18 281 0.0 6.4 0.00 0.00 0.00 57 1013.4
20260507071518 17 203 3.2 8.0 0.00 0.00 0.00 58 1013.4
20260507070016 17 278 3.2 6.4 0.00 0.00 0.00 58 1013.1
20260507064513 18 278 0.0 3.2 0.00 0.00 0.00 63 1013.2
20260507063009 17 134 0.0 3.2 0.00 0.00 0.00 65 1013.1
20260507061509 17 50 3.2 4.8 0.00 0.00 0.00 66 1012.9
20260507060006 17 60 0.0 3.2 0.00 0.00 0.00 67 1012.8
20260507054505 16 79 0.0 1.6 0.00 0.00 0.00 70 1012.7
20260507053000 15 84 0.0 1.6 0.00 0.00 0.00 74 1012.6
20260507051502 14 65 0.0 1.6 0.00 0.00 0.00 77 1012.5
20260507050101 13 120 0.0 1.6 0.00 0.00 0.00 81 1012.4
20260507050001 13 120 0.0 1.6 0.00 0.00 0.00 81 1012.4
20260507044600 12 120 0.0 1.6 0.00 0.00 0.00 84 1012.2
20260507043055 11 134 0.0 3.2 0.00 0.00 0.00 86 1012.1
20260507041600 11 292 0.0 1.6 0.00 0.00 0.00 85 1012.0
20260507040104 11 215 0.0 0.0 0.00 0.00 0.00 86 1011.8
20260507034607 11 215 0.0 1.6 0.00 0.00 0.00 86 1011.7
20260507033102 12 9 0.0 1.6 0.00 0.00 0.00 84 1011.7
20260507031545 12 18 0.0 1.6 0.00 0.00 0.00 84 1011.6
20260507030045 12 356 0.0 1.6 0.00 0.00 0.00 82 1011.6
20260507024552 12 98 3.2 4.8 0.00 0.00 0.00 82 1011.5
20260507023039 12 194 0.0 3.2 0.00 0.00 0.00 81 1011.4
20260507021537 12 327 0.0 0.0 0.00 0.00 0.00 79 1011.4
20260507020037 13 6 1.6 3.2 0.00 0.00 0.00 78 1011.4
20260507014535 13 107 0.0 4.8 0.00 0.00 0.00 76 1011.2
20260507013037 13 197 0.0 1.6 0.00 0.00 0.00 78 1011.1
20260507011533 13 125 0.0 1.6 0.00 0.00 0.00 76 1011.2
20260507010036 14 228 0.0 4.8 0.00 0.00 0.00 74 1011.1
20260507004525 14 273 0.0 6.4 0.00 0.00 0.00 73 1011.2
20260507003022 15 56 3.2 6.4 0.00 0.00 0.00 68 1011.2
20260507001523 15 164 3.2 11.3 0.00 0.00 0.00 68 1011.1
20260507000121 15 208 4.8 11.3 0.00 0.00 0.00 68 1011.3
20260506234536 15 208 1.6 6.4 0.00 0.00 0.00 68 1011.2
20260506233019 15 246 4.8 14.5 0.00 0.00 0.00 67 1011.3
20260506231516 15 186 4.8 6.4 0.00 0.00 0.00 68 1011.4
20260506230017 15 195 4.8 12.9 0.00 0.00 0.00 65 1011.4
20260506224524 15 256 4.8 9.7 0.00 0.00 0.00 67 1011.4
20260506223011 16 260 3.2 8.0 0.00 0.00 0.00 64 1011.3
20260506221509 16 204 3.2 11.3 0.00 0.00 0.00 64 1011.1
20260506220017 16 190 4.8 8.0 0.00 0.00 0.00 63 1011.1
20260506214505 16 174 4.8 14.5 0.00 0.00 0.00 63 1011.1
20260506213005 16 191 4.8 12.9 0.00 0.00 0.00 62 1011.0
20260506211511 16 193 3.2 8.0 0.00 0.00 0.00 63 1011.0
20260506210005 16 176 0.0 6.4 0.00 0.00 0.00 61 1011.0
20260506204503 16 181 0.0 4.8 0.00 0.00 0.00 60 1010.8
20260506203001 16 195 1.6 8.0 0.00 0.00 0.00 59 1010.8
20260506201501 17 249 3.2 11.3 0.00 0.00 0.00 58 1010.7
20260506200112 17 193 6.4 16.1 0.00 0.00 0.00 57 1010.4
20260506194601 17 194 8.0 16.1 0.00 0.00 0.00 56 1010.2
20260506193112 17 163 12.9 20.9 0.00 0.00 0.00 55 1010.1
20260506191559 17 186 9.7 17.7 0.00 0.00 0.00 55 1009.8
20260506190059 17 188 11.3 19.3 0.00 0.00 0.00 56 1009.6
20260506184557 17 193 14.5 24.1 0.00 0.00 0.00 55 1009.5
20260506183101 17 160 11.3 20.9 0.00 0.00 0.00 57 1009.3
20260506181615 18 187 8.0 16.1 0.00 0.00 0.00 58 1009.2
20260506180054 18 190 11.3 17.7 0.00 0.00 0.00 61 1009.0
20260506174551 18 185 8.0 16.1 0.00 0.00 0.00 62 1009.1
20260506173120 18 148 4.8 9.7 0.00 0.00 0.00 65 1008.9
20260506171555 18 179 3.2 6.4 0.00 0.00 0.00 66 1008.7
20260506170057 18 193 3.2 16.1 0.00 0.00 0.00 67 1008.6
20260506164548 18 152 6.4 11.3 0.00 0.00 0.00 70 1008.6
20260506163046 18 145 4.8 11.3 0.00 0.00 0.00 71 1008.5